STARLINK-34611, 64918

Orbit data source: Space-Track

STARLINK-34611, 64918 is a payload satellite owned by SpaceX/Seattle (US) in LEO that was launched on Sat, 26 Jul 2025 UTC via an FALCON 9 launch vehicle from the Air Force Eastern Test Range (AFETR). Payload-class satellites include a variety of spacecraft equipped with specific instruments for various scientific and technological missions. These include communications satellites like Starlink; space stations such as the ISS; scientific satellites like the Hubble; Earth observation satellites from companies like Planet Labs, Umbra, and HawkEye 360; GPS; miniature CubeSats for education and research; and military/defense satellites.

Loading next visibility...
Identifier
64918, 2025-157Q
Orbit
LEO
Country
Flag of USUS
Related business
Manufacturer
SpaceX/Seattle
Mission
Operational Commercial Communications
Bus & Motor
STARLINK V2MO, Unknown motor
Mass
575 kg wet, ~530 kg dry
Launch date (UTC)
2025-07-26 (4 months ago)
Launch vehicle
FALCON 9
Launch site
Air Force Eastern Test Range (AFETR)
Object type
Payload
Rocket body
Debris
Shape & HBR
Box + 2 Pan, 17.7 m
Radar Cross Section
36.964 m², Large (>1 m²)

Expand to show TLE details & history
Last TLE update: 18 hours ago

TLE from 18 hours ago
0 STARLINK-34611
1 64918U 25157Q   25340.63092161  .00062131  00000-0  15521-2 0  9999
2 64918  53.1602  62.3554 0001563 112.5560 247.5611 15.39589857 21815
Epoch: 2025-12-06T15:08Z
TLE epoch observation values (Epoch: 2025-12-06T15:08:31.627Z)
Latitude
0.00005°
Longitude
119.56776°
Altitude
448.632 km
Speed
7.644 km/s
True Right ascension
04h 09m 25s
True Declination
0° 00' 00"
Sunlit
Object was in full shadow at epoch
Visualization orbit readout
Latitude
Unknown
Longitude
Unknown
Altitude
Unknown
Speed
Unknown
Apparent Right ascension
Unknown
Apparent Declination
Unknown
Sunlit
N/A
Visualization observer readout
Local Sidereal Time
07:36:46
Azimuth
Unknown
Elevation
Unknown
Doppler factor
Unknown
Orbital elements
Apogee altitude
448.646 km
Perigee altitude
446.512 km
Semi-major axis
6,825.716 km
Eccentricity
0.00016
Inclination
53.1602°
RAAN
62.3554°
Arg. of periapsis
112.556°
True anomaly
247.54455°
Mean anomaly
247.5611°
Eccentric anomaly
247.55282°
Mean motion
3.84876 °/min
Orbital period
93.54 mins
BSTAR
0.0015521
Loading maneuver chart data...
Computing Atmospheric mass density...
Loading historical data...
Loading historical data...
Loading historical data...
Loading historical data...
Loading historical data...
Loading historical data...
Loading historical data...

Documentation

Showing up to 5 results
|